Location: Banff
(51.1667°N, 115.5667°W)
Time: 04:23:17
(UTC+00:00)

Explorer 7 - Pass Details

Date: 01 December 2020
Orbit: 484 x 678 km, 50.3° (Epoch: 16 January)

Event Time Altitude Azimuth Distance (km) Brightness Sun altitude
Exits shadow 12:53:00 62° 190° (S) 629 7.0 -22.8°
Drops below altitude 10° 12:56:55 10° 116° (ESE) 1,778 10.4 -22.2°
Sets 12:59:04 0° 113° (ESE) 2,637 11.6 -21.9°
